| time (UTC) | temp F | wind direction | speed knots | gust knots | rain 1hr in | rain 24hr in | rain mn in | humidity % | barometer mb |
| 20260903120004 | 71 | 186 | 0.0 | 0.0 | 0.00 | 0.00 | 0.00 | 98 | 1016.4 |
| 20260903114502 | 71 | 186 | 0.0 | 0.0 | 0.00 | 0.00 | 0.00 | 98 | 1016.3 |
| 20260903113002 | 71 | 186 | 0.0 | 0.0 | 0.00 | 0.00 | 0.00 | 98 | 1016.2 |
| 20260903111558 | 71 | 186 | 0.0 | 0.0 | 0.00 | 0.00 | 0.00 | 98 | 1016.0 |
| 20260903110059 | 71 | 186 | 0.0 | 0.0 | 0.00 | 0.00 | 0.00 | 98 | 1015.8 |
| 20260903104554 | 71 | 186 | 0.0 | 0.0 | 0.00 | 0.00 | 0.00 | 98 | 1015.6 |
| 20260903103054 | 71 | 186 | 0.0 | 0.0 | 0.00 | 0.00 | 0.00 | 98 | 1015.5 |
| 20260903101559 | 71 | 186 | 0.0 | 0.0 | 0.00 | 0.00 | 0.00 | 98 | 1015.4 |
| 20260903100053 | 71 | 186 | 0.0 | 0.0 | 0.00 | 0.00 | 0.00 | 98 | 1015.4 |
| 20260903094631 | 71 | 186 | 0.0 | 0.0 | 0.00 | 0.00 | 0.00 | 98 | 1015.4 |
| 20260903093051 | 71 | 186 | 0.0 | 0.0 | 0.00 | 0.00 | 0.00 | 98 | 1015.3 |
| 20260903091548 | 72 | 186 | 0.0 | 0.0 | 0.00 | 0.00 | 0.00 | 98 | 1015.5 |
| 20260903090049 | 72 | 186 | 0.0 | 0.0 | 0.00 | 0.00 | 0.00 | 97 | 1015.5 |
| 20260903084546 | 72 | 186 | 0.0 | 0.0 | 0.00 | 0.00 | 0.00 | 98 | 1015.5 |
| 20260903083045 | 72 | 186 | 0.0 | 0.0 | 0.00 | 0.00 | 0.00 | 97 | 1015.4 |
| 20260903081544 | 72 | 186 | 0.0 | 0.0 | 0.00 | 0.00 | 0.00 | 97 | 1015.4 |
| 20260903080056 | 72 | 186 | 0.0 | 0.0 | 0.00 | 0.00 | 0.00 | 97 | 1015.3 |
| 20260903074544 | 72 | 190 | 0.0 | 0.0 | 0.00 | 0.00 | 0.00 | 97 | 1015.2 |
| 20260903073048 | 72 | 190 | 0.0 | 0.0 | 0.00 | 0.00 | 0.00 | 97 | 1015.2 |
| 20260903071640 | 72 | 190 | 0.0 | 0.0 | 0.00 | 0.00 | 0.00 | 97 | 1015.1 |
| 20260903070039 | 72 | 190 | 0.0 | 0.0 | 0.00 | 0.00 | 0.00 | 96 | 1014.9 |
| 20260903064537 | 73 | 190 | 0.0 | 0.0 | 0.00 | 0.00 | 0.00 | 96 | 1015.1 |
| 20260903063035 | 73 | 190 | 0.0 | 0.0 | 0.00 | 0.00 | 0.00 | 96 | 1015.2 |
| 20260903061533 | 73 | 190 | 0.0 | 0.0 | 0.00 | 0.00 | 0.00 | 96 | 1015.2 |
| 20260903060034 | 73 | 190 | 0.0 | 0.0 | 0.00 | 0.00 | 0.00 | 95 | 1015.3 |
| 20260903054530 | 74 | 190 | 0.0 | 0.0 | 0.00 | 0.00 | 0.00 | 95 | 1015.4 |
| 20260903053029 | 74 | 190 | 0.0 | 0.0 | 0.00 | 0.00 | 0.00 | 95 | 1015.4 |
| 20260903051527 | 74 | 190 | 0.0 | 0.0 | 0.00 | 0.00 | 0.00 | 94 | 1015.4 |
| 20260903050027 | 74 | 190 | 0.0 | 0.0 | 0.00 | 0.00 | 0.00 | 94 | 1015.4 |
| 20260903044533 | 74 | 190 | 0.0 | 0.0 | 0.00 | 0.00 | 0.00 | 94 | 1015.3 |
| 20260903043026 | 74 | 190 | 0.0 | 0.0 | 0.00 | 0.00 | 0.00 | 93 | 1015.3 |
| 20260903041522 | 75 | 190 | 0.0 | 0.0 | 0.00 | 0.00 | 0.00 | 93 | 1015.4 |
| 20260903040020 | 75 | 190 | 0.0 | 0.0 | 0.00 | 0.00 | 0.00 | 92 | 1015.4 |
| 20260903034520 | 75 | 190 | 0.0 | 0.0 | 0.00 | 0.00 | 0.00 | 92 | 1015.3 |
| 20260903033019 | 76 | 190 | 0.0 | 0.0 | 0.00 | 0.00 | 0.00 | 91 | 1015.4 |
| 20260903031518 | 76 | 190 | 0.0 | 0.0 | 0.00 | 0.00 | 0.00 | 91 | 1015.3 |
| 20260903030018 | 76 | 190 | 0.0 | 0.0 | 0.00 | 0.00 | 0.00 | 90 | 1015.3 |
| 20260903024518 | 77 | 190 | 0.0 | 0.0 | 0.00 | 0.00 | 0.00 | 89 | 1015.4 |
| 20260903023017 | 77 | 190 | 0.0 | 0.0 | 0.00 | 0.00 | 0.00 | 88 | 1015.3 |
| 20260903021518 | 77 | 211 | 0.0 | 0.0 | 0.00 | 0.00 | 0.00 | 87 | 1015.3 |
| 20260903020016 | 78 | 211 | 0.0 | 0.0 | 0.00 | 0.00 | 0.00 | 87 | 1015.2 |
| 20260903014515 | 78 | 211 | 0.0 | 0.0 | 0.00 | 0.00 | 0.00 | 86 | 1015.2 |
| 20260903013015 | 79 | 211 | 0.0 | 0.0 | 0.00 | 0.00 | 0.00 | 84 | 1015.2 |
| 20260903011515 | 79 | 211 | 0.0 | 0.0 | 0.00 | 0.00 | 0.00 | 83 | 1014.9 |
| 20260903010015 | 80 | 211 | 0.0 | 0.0 | 0.00 | 0.00 | 0.00 | 83 | 1014.8 |
| 20260903004514 | 81 | 211 | 0.0 | 0.0 | 0.00 | 0.00 | 0.00 | 82 | 1014.7 |
| 20260903003013 | 82 | 211 | 0.0 | 0.0 | 0.00 | 0.00 | 0.00 | 79 | 1014.6 |
| 20260903001515 | 84 | 211 | 0.0 | 0.0 | 0.00 | 0.00 | 0.00 | 76 | 1014.6 |
| 20260903000021 | 85 | 211 | 0.0 | 0.0 | 0.00 | 0.00 | 0.00 | 73 | 1014.5 |
| 20260902234515 | 86 | 212 | 0.0 | 0.0 | 0.00 | 0.00 | 0.00 | 70 | 1014.6 |
| 20260902233012 | 88 | 212 | 0.0 | 0.0 | 0.00 | 0.00 | 0.00 | 67 | 1014.5 |
| 20260902231521 | 89 | 212 | 0.0 | 0.0 | 0.00 | 0.00 | 0.00 | 65 | 1014.6 |
| 20260902230010 | 90 | 212 | 0.0 | 0.0 | 0.00 | 0.00 | 0.00 | 60 | 1014.6 |
| 20260902224510 | 91 | 212 | 0.0 | 1.7 | 0.00 | 0.00 | 0.00 | 57 | 1014.6 |
| 20260902223009 | 92 | 227 | 0.0 | 1.7 | 0.00 | 0.00 | 0.00 | 56 | 1014.7 |
| 20260902221508 | 92 | 285 | 0.0 | 1.7 | 0.00 | 0.00 | 0.00 | 55 | 1014.7 |
| 20260902220008 | 93 | 275 | 0.0 | 0.9 | 0.00 | 0.00 | 0.00 | 55 | 1014.8 |
| 20260902214506 | 93 | 273 | 0.9 | 3.5 | 0.00 | 0.00 | 0.00 | 52 | 1014.8 |
| 20260902213005 | 93 | 77 | 0.0 | 0.0 | 0.00 | 0.00 | 0.00 | 52 | 1014.8 |
| 20260902211507 | 94 | 190 | 0.0 | 2.6 | 0.00 | 0.00 | 0.00 | 51 | 1014.9 |
| 20260902210004 | 95 | 216 | 0.0 | 0.9 | 0.00 | 0.00 | 0.00 | 52 | 1015.0 |
| 20260902204503 | 95 | 286 | 0.0 | 5.2 | 0.00 | 0.00 | 0.00 | 50 | 1015.0 |
| 20260902203002 | 96 | 330 | 0.0 | 1.7 | 0.00 | 0.00 | 0.00 | 49 | 1015.1 |
| 20260902201616 | 96 | 271 | 0.0 | 5.2 | 0.00 | 0.00 | 0.00 | 50 | 1015.2 |
| 20260902200108 | 96 | 186 | 0.0 | 2.6 | 0.00 | 0.00 | 0.00 | 49 | 1015.3 |
| 20260902194601 | 96 | 249 | 0.9 | 3.5 | 0.00 | 0.00 | 0.00 | 50 | 1015.6 |
| 20260902193055 | 96 | 241 | 0.0 | 3.5 | 0.00 | 0.00 | 0.00 | 49 | 1015.8 |
| 20260902191600 | 96 | 227 | 1.7 | 4.3 | 0.00 | 0.00 | 0.00 | 50 | 1015.9 |
| 20260902190116 | 95 | 92 | 0.0 | 1.7 | 0.00 | 0.00 | 0.00 | 53 | 1016.0 |
| 20260902184556 | 95 | 240 | 0.9 | 3.5 | 0.00 | 0.00 | 0.00 | 52 | 1016.3 |
| 20260902183046 | 95 | 262 | 0.0 | 3.5 | 0.00 | 0.00 | 0.00 | 53 | 1016.4 |
| 20260902181557 | 95 | 260 | 0.9 | 4.3 | 0.00 | 0.00 | 0.00 | 53 | 1016.5 |
| 20260902180042 | 95 | 105 | 0.0 | 2.6 | 0.00 | 0.00 | 0.00 | 56 | 1016.7 |
| 20260902174542 | 93 | 234 | 0.0 | 3.5 | 0.00 | 0.00 | 0.00 | 55 | 1016.7 |
| 20260902173041 | 94 | 258 | 0.0 | 1.7 | 0.00 | 0.00 | 0.00 | 55 | 1017.0 |
| 20260902171553 | 93 | 155 | 0.0 | 3.5 | 0.00 | 0.00 | 0.00 | 59 | 1017.3 |
| 20260902170035 | 93 | 224 | 0.0 | 1.7 | 0.00 | 0.00 | 0.00 | 59 | 1017.4 |
| 20260902164532 | 93 | 81 | 0.0 | 0.9 | 0.00 | 0.00 | 0.00 | 61 | 1017.6 |
| 20260902163030 | 91 | 172 | 0.0 | 1.7 | 0.00 | 0.00 | 0.00 | 63 | 1017.9 |
| 20260902161534 | 91 | 58 | 0.0 | 2.6 | 0.00 | 0.00 | 0.00 | 65 | 1018.1 |
| 20260902160024 | 90 | 167 | 0.0 | 0.0 | 0.00 | 0.00 | 0.00 | 66 | 1018.2 |
| 20260902154519 | 88 | 307 | 0.0 | 1.7 | 0.00 | 0.00 | 0.00 | 70 | 1018.3 |
| 20260902153021 | 87 | 254 | 0.0 | 2.6 | 0.00 | 0.00 | 0.00 | 72 | 1018.5 |
| 20260902151516 | 87 | 246 | 0.9 | 2.6 | 0.00 | 0.00 | 0.00 | 73 | 1018.5 |
| 20260902150012 | 86 | 215 | 0.0 | 1.7 | 0.00 | 0.00 | 0.00 | 76 | 1018.4 |
| 20260902144510 | 85 | 283 | 0.9 | 3.5 | 0.00 | 0.00 | 0.00 | 76 | 1018.4 |
| 20260902143008 | 84 | 234 | 0.9 | 2.6 | 0.00 | 0.00 | 0.00 | 77 | 1018.4 |
| 20260902141504 | 84 | 237 | 0.0 | 4.3 | 0.00 | 0.00 | 0.00 | 79 | 1018.4 |
| 20260902140003 | 83 | 270 | 0.9 | 2.6 | 0.00 | 0.00 | 0.00 | 79 | 1018.3 |
| 20260902134615 | 82 | 233 | 0.0 | 1.7 | 0.00 | 0.00 | 0.00 | 82 | 1018.4 |
| 20260902133057 | 82 | 222 | 0.0 | 1.7 | 0.00 | 0.00 | 0.00 | 84 | 1018.5 |
| 20260902131552 | 81 | 182 | 0.0 | 0.0 | 0.00 | 0.00 | 0.00 | 91 | 1018.5 |
| 20260902130048 | 79 | 182 | 0.0 | 0.0 | 0.00 | 0.00 | 0.00 | 95 | 1018.5 |
| 20260902124545 | 77 | 182 | 0.0 | 0.0 | 0.00 | 0.00 | 0.00 | 97 | 1018.5 |
| 20260902123042 | 75 | 182 | 0.0 | 0.0 | 0.00 | 0.00 | 0.00 | 99 | 1018.4 |
| 20260902121540 | 74 | 182 | 0.0 | 0.0 | 0.00 | 0.00 | 0.00 | 99 | 1018.3 |